Regional Weather Roundup
Issued by NWS Charleston, SC

Current Version | Previous Version | Text Only | Print | Product List | Glossary Off
Versions: 1 2 3 4 5 6 7 8 9 10 11 12 13 14 15 16 17 18 19 20 21 22 23 24 25 26 27 28 29 30 31 32 33 34 35 36 37 38 39 40 41 42 43 44 45 46 47 48 49 50

000
ASUS42 KCHS 192312
RWRCHS

Regional Weather Roundup
National Weather Service Charleston SC
700 PM EDT THU APR 19 2018

NOTE: "fair" indicates few or no clouds below 12,000 feet with no
significant weather and/or obstructions to visibility.

Not all stations are quality controlled. Use data with caution,
especially dewpoint observations.

SCZ027-030-031-034>040-042>050-200000-
...Southeast South Carolina...

CITY           SKY/WX    TMP DP  RH WIND       PRES   REMARKS
N Charleston   FAIR      81  48  31 W16G24    29.92R
Waterfront Prk   N/A     82  56  40 W12       29.76R
Mount Pleasant FAIR      81  50  34 W10G20    29.92R
Johns Island   FAIR      82  55  39 W15G22    29.93R
Pinopolis        N/A     75  52  43 NW18      29.85R
Moncks Corner  FAIR      77  34  20 NW5       29.93R
Summerville    FAIR      79  45  29 W9G17     29.95R
Beaufort MCAS  FAIR      81  55  40 W12       29.94R
Beaufort Arpt  FAIR      81  55  41 W12       29.94R
Hilton Head Is MOSUNNY   81  55  41 W9G17     29.95R
Walterboro     FAIR      79  46  31 NW12G17   29.95R
Allendale      FAIR      77  37  24 VRB7G17   29.96R

...Southern Midlands and Pee Dee...

CITY           SKY/WX    TMP DP  RH WIND       PRES   REMARKS
Georgetown     FAIR      79  41  25 W15G25    29.92R
Kingstree      FAIR      77  34  20 W14G21    29.94R
Orangeburg     FAIR      76  35  22 NW15G24   29.97R
Barnwell       FAIR      75  37  25 NW9       29.98R
Aiken          FAIR      70  37  30 W14G20    30.04R
Manning        FAIR      73  32  21 NW9G21    29.95R
Columbia       FAIR      76  37  24 NW13      29.97R
Sumter         FAIR      73  39  29 N16       29.94R
Florence       FAIR      73  39  29 N21G28    29.96R
Myrtle Beach   FAIR      80  40  23 W13G22    29.91R
N Myrtle Beach FAIR      80  39  23 W8G21     29.89R

$$

GAZ063-065-086>088-099>101-113>116-118-119-134>141-150-200000-
...Southeast Georgia...

CITY           SKY/WX    TMP DP  RH WIND       PRES   REMARKS
Savannah Arpt  FAIR      81  56  42 W16       29.96R
Hunter AAF     FAIR      81  55  41 W13       29.93R
Fort Stewart   FAIR      82  55  39 W9        29.94S
Statesboro     FAIR      79  41  25 NW13G20   29.97R
Sylvania       FAIR      79  52  38 NW12G18   29.98R
Claxton        FAIR      81  56  42 W13       29.97R

...CSRA, Central and far Southeast Georgia...

CITY           SKY/WX    TMP DP  RH WIND       PRES   REMARKS
Thomson        FAIR      69  37  31 N16       30.09R
Augusta-Bush   FAIR      73  37  27 NW15      30.00R
Augusta-Daniel FAIR      73  36  25 W8G21     30.02R
Swainsboro     FAIR      77  45  31 NW8       30.01R
Vidalia        FAIR      81  52  36 NW7G18    29.99R
Eastman        FAIR      79  16   9 NW7       30.04R
Hazlehurst     FAIR      82  45  27 W6        29.98R
Alma           FAIR      81  56  42 W8        29.98S
Waycross       FAIR      82  54  38 W13G18    29.99R
Jesup          FAIR      82  54  36 W10G20    29.98R
Baxley         FAIR      79  54  41 W12       29.99R
Brunswick      FAIR      81  55  41 W13G20    29.98R
Saint Simons   FAIR      84  59  42 W10       29.96R

$$

SCZ027-028-034-036>038-045-046-048>050-GAZ119-141-200000-
...Lake and Supplemental Coastal Observations...

STATION/POSITION TIME  TEMP    WIND        PRES    WAVE   SWELL
                       AIR SEA DIR/SP/G            HT/PER HT/PER/DIR
                 (UTC) (F)     (DEG/KT/KT) (MB)    (FT/S) (FT/S/D)
Winyah Bay       2145   81     280/ 11     1012.0
Lake Murray      2220   74     350/  5/ 13 1014.2R
ACE Basin NERRS  2145   82     350/  5       N/A
Fort Pulaski     2248   78 67  300/ 16/ 19 1014.4R
Sapelo Island    2200   84     280/ 15     1014.0

$$

ANZ835-935-AMZ111-154-330-350-352-354-370-450-454-472-200000-
...C-MAN and Buoy Observations...

STATION/POSITION TIME  TEMP    WIND        PRES    WAVE   SWELL
                       AIR SEA DIR/SP/G            HT/PER HT/PER/DIR
                 (UTC) (F)     (DEG/KT/KT) (MB)    (FT/S) (FT/S/D)
Buoy 41004       2250   69 68  220/ 17/ 21 1013.5R   6/ 6   2/130/ 9
Buoy 41008       2250   70 66  230/  6/  8 1014.3R   3/ 5   2/170/ 5
Folly Beach CMAN 2300   70     220/  8/ 11 1014.1R
Capers Nearshore 2208   67 64  240/ 16/ 21 1013.0R
Fripp Nearshore  2208   73 65  280/ 10/ 16 1013.3R


STATION/POSITION TIME  TEMP    WIND        PRES    WAVE   SWELL
                       AIR SEA DIR/SP/G            HT/PER HT/PER/DIR
                 (UTC) (F)     (DEG/KT/KT) (MB)    (FT/S) (FT/S/D)
5E St. Marys GA  2300      67                N/A     2/ 5
Frying Pan Buoy  2250   68 65  220/ 21/ 25 1012.3R   7/ 7   2/190/15
Buoy 41025       2300   67 68  310/ 19/ 37 1011.8
Cape Lookout NC  2200          230/ 14/ 21 1010.4R
Buoy 41002       2250   73 71  220/ 19/ 23 1014.7F   8/ 8   3/260/13
Buoy 41010       2250   75 74  240/  6/  8 1018.3F   3/ 5   3/270/ 5
St Augustine FL  2300   81 69  230/ 13/ 16 1016.6R


$$




USA.gov is the U.S. government's official web portal to all federal, state and local government web resources and services.